Погода в Бабушкине

Погода в Бабушкине : погода сейчас, прогноз погоды и архив. Всё, что Вы хотите узнать о погоде в Бабушкине!

Поиск расширенной информации на нашем сайте:

Другие новости

Новости СМИ2

Главная страница сайта

Новости сайта

03.07.2017

Напоминаем, что на нашем специализированном сайте Метеоцентр.Азия вы можете получить высокодетализированные автоматические прогнозы погоды по пунктам России, СНГ и мира в авиационном формате (включающие направление и скорость ветра, видимость, явления погоды, количество и форму облачности, нижнюю и верхнюю границу облачности).

Рекомендуем: укладка плитки под ключ, Стоимость укладки тротуарной плитки Москв

Погода в Бабушкине - сегодня

Время (UTC), дата Ветер
(°,м/с) 
Видим.   Явления Облачность Т
(°С)
Тd
(°С)
f(%) Тe
(°С)
Pmin
(гПа)
dP
(гПа)
Po
(мм)
O2
(г/м3)
Тmin Tmax R s Состояние
почвы
15 19.02.18 300 (СЗ) 10 км    9/0 средняя, верхняя 
[Ac trans|Ci sp]
-9.8 -16.9 56 -12  1032.8  -0.5  730  306           
18 19.02.18 310 (СЗ) 10 км    10/0 средняя 
[Ac und]
-13.1 -16 79 -13  1033.4  0.1  729  310           
21 19.02.18 310 (СЗ) 10 км    10/0 средняя 
[Ac und]
-13.8 -15.9 84 -14  1033  -0.6  729  311           
03 20.02.18 310 (СЗ) 20000 м    9/0 верхняя 
[Ci sp]
-13.5 -16.8 76 -17  1033.3  0.1  729  310  -17.8         
06 20.02.18 300 (СЗ) 20000 м    9/1 600 м верхняя 
[Sc|Ci sp]
-11.8 -15.5 74 -16  1031.1  -1.6  728  308           
09 20.02.18 300 (СЗ) 20000 м    9/1 600 м средняя, верхняя 
[Sc|Ac trans|Ci sp]
-6.5 -17.5 41 -11  1028.6  -1.2  727  301           
15 20.02.18 270 (З) 20000 м    9/0 верхняя 
[Ci sp]
-11.7 -16.8 66 -12  1025.7  -2.1  724  306           
18 20.02.18 300 (СЗ) 20000 м    9/0 верхняя 
[Ci sp]
-9.9 -16.7 58 -14  1026.4  725  304           
21 20.02.18 300 (СЗ) 20000 м    10/0 средняя 
[Ac As]
-10.7 -15.4 68 -15  1026.4  0.1  725  305           
06 21.02.18 300 (СЗ) 3{10}  10 км    9/3 600 м кучево-дожд., средняя, верхняя 
[Cb cap|Ac trans|Ci sp]
-8 -11.1 78 -11  1024.4  -1.1  724  301           
09 21.02.18 300 (СЗ) 20000 м  {ливн. осадки}  9/0 средняя, верхняя 
[Ac trans|Ci sp]
-8.1 -11.2 78 -12  1022.9  -1.5  723  301           
15 21.02.18 300 (СЗ) 5{10}  10 км    10/4 600 м средняя 
[Sc|Ac As]
-8.7 -11.3 81 -13  1022.1  -0.5  722  302           
18 21.02.18 310 (СЗ) 10 км    9/0 средняя, верхняя 
[Ac trans|Ci sp]
-9.3 -12.1 80 -13  1020.6  -1.6  721  302           
21 21.02.18 300 (СЗ) 10 км    10/0 средняя 
[Ac As]
-9.5 -10.7 91 -14  1020  -0.6  721  302           
06 22.02.18 300 (СЗ) 10 км  {снег}  9/1 600 м средняя, верхняя 
[Sc|Ac trans|Ci sp]
-9.6 -10.9 90 -14  1020.3  0.1  721  302           
09 22.02.18 310 (СЗ) 4000 м  в посл. час снег  9/3 600 м средняя, верхняя 
[Sc|Ac As|Ci sp]
-9.7 -11.3 88 -13  1021.4  722  302           
15 22.02.18 300 (СЗ) 10 км    9/0 средняя, верхняя 
[Ac trans|Ci sp]
-12.7 -15 83 -15  1025.9  1.5  724  307           
18 22.02.18 270 (З) 10 км    9/0 средняя, верхняя 
[Ac trans|Ci sp]
-16 -18 85 -18  1027.8  725  312           
21 22.02.18 270 (З) 20000 м    9/0 верхняя 
[Ci sp]
-17.5 -21 74 -24  1027.8  -0.4  725  313           
03 23.02.18 310 (СЗ) 20000 м    9/0 верхняя 
[Ci sp]
-14.9 -18.6 73 -19  1027.1  0.3  725  310           
06 23.02.18 320 (СЗ) 20000 м    9/0 верхняя 
[Ci sp]
-13.3 -17.1 73 -13  1027.1  0.3  725  308           
09 23.02.18 140 (ЮВ) 20000 м    9/0 средняя, верхняя 
[Ac trans|Ci sp]
-12.5 -16.1 74 -15  1027.5  0.6  725  308           
15 23.02.18 260 (З) 20000 м    9/0 средняя, верхняя 
[Ac trans|Ci sp]
-15.9 -17.6 87 -18  1028.9  -0.5  726  312           
18 23.02.18 300 (СЗ) 20000 м    9/0 средняя, верхняя 
[Ac trans|Ci sp]
-19.2 -20.6 89 -22  1029.1  -0.5  725  316           
21 23.02.18 300 (СЗ) 20000 м    9/0 средняя, верхняя 
[Ac trans|Ci sp]
-17.6 -19 89 -18  1028.5  -0.3  725  314           
Время (UTC), дата Ветер
(°,м/с) 
Видим.   Явления Облачность Т
(°С)
Тd
(°С)
f(%) Тe
(°С)
Pmin
(гПа)
dP
(гПа)
Po
(мм)
O2
(г/м3)
Тmin Tmax R s Состояние
почвы

Для получения пояснительной информации подведите курсор к названию столбца.

ПОГОДА в Бабушкине - архив

Всё, что Вы хотите узнать о погоде в Бабушкине - удобно и подробно!

Выберите нужную дату (начиная с 1 января 2015* года) и нажмите кнопку "Найти".
Будут отображены архивные сводки погоды по пункту Бабушкин, начиная с указанной даты.


Отображать данные в формате CSV (для использования в таблицах Excel)


Внимание! Наш архив погоды предназначен исключительно для личного некоммерческого использования в познавательных целях. Если Вам необходимы официальные справки о состоянии погоды (для производственных, юридических, коммерческих и т.п. целей), обращайтесь в органы Росгидромета.

*Примечание: данная дата относится к архиву по метеостанциям СССР (Россия, СНГ, Балтия).
Архив по метеостанциям Зарубежной Европы и Азии (кроме Китая) хранится 10 дней, по другим регионам земного шара (Китай, Африка, Америка, Австралия, Океания) - 1 день.

Бабушкин - район местоположения метеостанции


Название, широта, долгота, высота метеостанции:
Бабушкин 51.7°ш. 105.9°д. 467 м над ур. моря [Российская Федерация]

Дополнительная информация

В oтличие oт бoльшинства пoгoдных сайтoв мы публикуем пoдрoбную метеoинфoрмацию в детальнoм прoфессиoнальнoм фoрмате.

Характеристики температуры и влажнoсти вoздуха измеряются на высoте 2 м в тени вдали oт зданий и деревьев.
Скoрoсть ветра измеряется на высoте 10 м (на урoвне рoста челoвека скoрoсть ветра ниже в 1.5-2 раза). Если метеoстанция нахoдится в гoрoде или в лесу, тo скoрoсть ветра занижена на 2-4 м/с пo сравнению с oткрытым местoм. Скoрoсть ветра над акватoриями крупных рек и oзёр, а также на вершинах хoлмoв на 2-5 м/с выше, чем в oбычных услoвиях.
Атмoсфернoе давление в разных тoчках местнoсти мoжет значительнo oтличаться oт давления на метеoстанции, в зависимoсти oт услoвий рельефа (при пoдъёме на 10 м давление пoнижается примернo на 1 мм рт.ст.).